Location: B?dargowo
(53.3916°N, 14.4413°E)
Time: 09:47:54
(UTC+00:00)

CZ-4B R/B - Pass Details

Date: 05 February 2023
Orbit: 473 x 641 km, 97.9° (Epoch: 19 March)

Event Time Altitude Azimuth Distance (km) Brightness Sun altitude
Rises 16:54:06 0° 169° (S) 2,763 6.4 -9.4°
Reaches altitude 10° 16:56:18 10° 172° (S) 1,842 5.6 -9.8°
Maximum altitude 17:00:16 71° 256° (WSW) 574 3.1 -10.3°
Drops below altitude 10° 17:04:03 10° 341° (NNW) 1,758 5.5 -10.9°
Sets 17:06:06 0° 344° (NNW) 2,625 6.3 -11.2°
